Terminal Aerodrome Forecast
Issued by NWS

Home | Current Version | Previous Version | Text Only | Print | Product List | Glossary On
Versions: 1 2 3 4 5 6 7 8 9 10 11 12 13 14 15 16 17 18 19 20 21 22 23 24 25 26 27 28 29 30 31 32 33 34 35 36 37 38 39 40 41 42 43 44 45 46 47 48 49 50
000
FTUS41 KBOX 201728
TAFMHT
TAF
KMHT 201728Z 2018/2118 24008KT P6SM BKN150
     FM202200 20006KT P6SM BKN100
     FM210400 00000KT P6SM BKN080
     FM211200 VRB03KT P6SM OVC025
     FM211600 06004KT 3SM -SHRA OVC015=

USA.gov is the U.S. government's official web portal to all federal, state and local government web resources and services.